Regional Weather Roundup
Issued by NWS

Home | Current Version | Previous Version | Text Only | Print | Product List | Glossary On
Versions: 1 2 3 4 5 6 7 8 9 10 11 12 13 14 15 16 17 18 19 20 21 22 23 24 25 26 27 28 29 30 31 32 33 34 35 36 37 38 39 40 41 42 43 44 45 46 47 48 49 50
000
ASUS42 KFFC 130810
RWRGA
WEATHER ROUNDUP FOR GEORGIA
NATIONAL WEATHER SERVICE PEACHTREE CITY GA
300 AM EST WED DEC 13 2017

NOTE: "FAIR" INDICATES FEW OR NO CLOUDS BELOW 12,000 FEET WITH NO
SIGNIFICANT WEATHER AND/OR OBSTRUCTIONS TO VISIBILITY.

* = USE WITH CAUTION. THE STATIONS MARKED WITH AN ASTERISK MAY NOT
REPORT WEATHER SUCH AS PRECIPITATION, FOG, OR THUNDER AND ARE NOT
QUALITY CONTROLLED BY NWS.

THE REMARK "TC" DENOTES TEMPERATURE READING IN DEGREES CELSIUS.

GAZ001>058-130900-
NORTH GEORGIA

CITY           SKY/WX    TMP DP  RH WIND       PRES   REMARKS
ATLANTA        CLEAR     32  13  45 NW13      30.02R WCI  22
ATHENS         CLEAR     31  11  43 W8        29.98R WCI  23
CHAMBLEE       CLEAR     30  10  43 NW13G22   30.02R WCI  20
PEACHTREE CITY CLEAR     34  16  47 NW9       30.05R WCI  27
ROME           CLEAR     31  12  45 NW6       30.07R WCI  25
WEST ATLANTA   CLEAR     31  13  47 NW7       30.04R WCI  24
GAINESVILLE    CLEAR     30   7  37 NW13      29.98R WCI  20
CARTERSVILLE   CLEAR     29  13  51 VRB3      30.07R


CITY           SKY/WX    TMP DP  RH WIND       PRES   REMARKS
DALTON*        CLEAR     28  14  54 NW8       30.08S WCI  20
LAWRENCEVILLE* CLEAR     30  12  47 VRB7      29.99R WCI  23
MARIETTA       CLEAR     31   9  40 NW12G20   30.02R WCI  21
KENNESAW*      CLEAR     30  12  47 NW10      30.04R WCI  21
CANTON*        CLEAR     32  10  40 NW10G20   30.01R WCI  24
$$

GAZ059>098-102>109-130900-
CENTRAL GEORGIA

CITY           SKY/WX    TMP DP  RH WIND       PRES   REMARKS
AUGUSTA-BUSH   CLEAR     37  20  50 NW9       29.97R WCI  30
AUGUSTA-DANIEL CLEAR     37  19  48 W10       29.96R WCI  30
COLUMBUS       CLEAR     39  21  48 N8        30.07R WCI  33
MACON          CLEAR     35  21  56 NW5       30.04R WCI  31
ROBINS AFB     CLEAR     35  22  57 NW8       30.03R WCI  29


CITY           SKY/WX    TMP DP  RH WIND       PRES   REMARKS
LAGRANGE*      CLEAR     36  15  43 N3        30.07R
SYLVANIA*      CLEAR     39  27  61 NW13      29.97R WCI  32
MILLEDGEVILLE* CLEAR     36  19  51 NW9       30.02R WCI  29
$$

GAZ099>101-110>166-130900-
SOUTH GEORGIA

CITY           SKY/WX    TMP DP  RH WIND       PRES   REMARKS
SAVANNAH       CLEAR     41  28  60 W12       29.97R
VALDOSTA       PTCLDY    36  32  85 NW3       30.04R
ALMA           PTCLDY    43  30  60 NW9       30.01R
ST SIMONS      CLEAR     44  34  67 W7        29.98R
FT STEWART     CLEAR     42  26  53 W10       29.96R
ALBANY         PTCLDY    40  31  70 NW8       30.08R WCI  34
HUNTER AFB     CLEAR     41  29  61 W9        29.94R
MOODY AFB      PTCLDY    40  32  75 NW8       30.02R WCI  34
BRUNSWICK      CLEAR     41  32  70 W3        29.99R


CITY           SKY/WX    TMP DP  RH WIND       PRES   REMARKS
BAINBRIDGE*    CLEAR     39  36  87 W5        30.07R
MOULTRIE*      PTCLDY    41  32  70 CALM      30.06R
VIDALIA*       CLEAR     41  30  65 W8        30.00R
WAYCROSS*      PTCLDY    39  32  76 NW6       30.02R WCI  35
DOUGLAS*       PTCLDY    41  32  70 NW6       30.04R
$$



USA.gov is the U.S. government's official web portal to all federal, state and local government web resources and services.